Time,TemperatureF,DewpointF,PressureIn,WindDirection,WindDirectionDegrees,WindSpeedMPH,WindSpeedGustMPH,Humidity,HourlyPrecipIn,Conditions,Clouds,dailyrainin,SoftwareType,DateUTC
2013-06-25 00:02:00,64.0,-99.9,29.90,ESE,108,4.0,5.0,-999,-99.99,,,-99.99,,2013-06-25 07:02:00,
2013-06-25 00:33:00,64.0,-99.9,29.90,ESE,114,3.0,4.0,-999,-99.99,,,-99.99,,2013-06-25 07:33:00,
2013-06-25 00:52:00,64.0,-99.9,29.90,SE,129,2.0,3.0,-999,-99.99,,,-99.99,,2013-06-25 07:52:00,
2013-06-25 01:02:00,64.0,-99.9,29.90,ESE,107,3.0,5.0,-999,-99.99,,,-99.99,,2013-06-25 08:02:00,
2013-06-25 01:34:00,64.0,-99.9,29.90,ESE,106,3.0,5.0,-999,-99.99,,,-99.99,,2013-06-25 08:34:00,
2013-06-25 01:53:00,64.0,-99.9,29.90,East,100,4.0,7.0,-999,-99.99,,,-99.99,,2013-06-25 08:53:00,
2013-06-25 02:12:00,64.0,-99.9,29.89,ESE,118,5.0,7.0,-999,-99.99,,,-99.99,,2013-06-25 09:12:00,
2013-06-25 02:33:00,64.0,-99.9,29.89,East,100,5.0,8.0,-999,-99.99,,,-99.99,,2013-06-25 09:33:00,
2013-06-25 02:53:00,64.0,-99.9,29.89,SSE,149,5.0,7.0,-999,-99.99,,,-99.99,,2013-06-25 09:53:00,
2013-06-25 03:33:00,64.0,-99.9,29.89,SE,138,3.0,5.0,-999,-99.99,,,-99.99,,2013-06-25 10:33:00,
2013-06-25 03:43:00,64.0,-99.9,29.89,SE,134,4.0,5.0,-999,-99.99,,,-99.99,,2013-06-25 10:43:00,
2013-06-25 03:52:00,64.0,-99.9,29.89,SE,142,4.0,6.0,-999,-99.99,,,-99.99,,2013-06-25 10:52:00,
2013-06-25 04:12:00,64.0,-99.9,29.89,SE,135,2.0,6.0,-999,-99.99,,,-99.99,,2013-06-25 11:12:00,
2013-06-25 04:22:00,64.0,-99.9,29.89,SE,140,4.0,7.0,-999,-99.99,,,-99.99,,2013-06-25 11:22:00,
2013-06-25 04:52:00,64.0,-99.9,29.89,SE,125,2.0,5.0,-999,-99.99,,,-99.99,,2013-06-25 11:52:00,
2013-06-25 05:33:00,64.0,-99.9,29.88,ESE,121,4.0,6.0,-999,-99.99,,,-99.99,,2013-06-25 12:33:00,
2013-06-25 05:43:00,64.0,-99.9,29.89,ESE,115,4.0,6.0,-999,-99.99,,,-99.99,,2013-06-25 12:43:00,
2013-06-25 05:55:00,64.0,-99.9,29.89,ESE,112,3.0,4.0,-999,-99.99,,,-99.99,,2013-06-25 12:55:00,
2013-06-25 06:12:00,-999.0,-99.9,29.89,ESE,112,4.0,6.0,-999,-99.99,,,-99.99,,2013-06-25 13:12:00,
2013-06-25 07:02:00,65.0,-99.9,29.90,SE,142,4.0,6.0,-999,-99.99,,,-99.99,,2013-06-25 14:02:00,
2013-06-25 07:34:00,65.0,-99.9,29.91,SE,145,5.0,7.0,-999,-99.99,,,-99.99,,2013-06-25 14:34:00,
2013-06-25 07:53:00,64.0,-99.9,29.91,SSE,150,3.0,5.0,-999,-99.99,,,-99.99,,2013-06-25 14:53:00,
2013-06-25 08:02:00,65.0,-99.9,29.91,SSE,165,3.0,8.0,-999,-99.99,,,-99.99,,2013-06-25 15:02:00,
2013-06-25 08:32:00,66.0,-99.9,29.91,SE,125,3.0,7.0,-999,-99.99,,,-99.99,,2013-06-25 15:32:00,
2013-06-25 08:53:00,67.0,-99.9,29.91,SSE,166,6.0,9.0,-999,-99.99,,,-99.99,,2013-06-25 15:53:00,
2013-06-25 09:03:00,67.0,-99.9,29.91,South,170,5.0,8.0,-999,-99.99,,,-99.99,,2013-06-25 16:03:00,
2013-06-25 09:52:00,69.0,-99.9,29.93,SSW,200,5.0,7.0,-999,-99.99,,,-99.99,,2013-06-25 16:52:00,
2013-06-25 10:34:00,69.0,-99.9,29.94,South,187,9.0,12.0,-999,-99.99,,,-99.99,,2013-06-25 17:34:00,
2013-06-25 11:02:00,69.0,-99.9,29.95,SSW,203,8.0,12.0,-999,-99.99,,,-99.99,,2013-06-25 18:02:00,
2013-06-25 11:23:00,70.0,-99.9,29.96,South,181,10.0,13.0,-999,-99.99,,,-99.99,,2013-06-25 18:23:00,
2013-06-25 11:53:00,70.0,-99.9,29.97,South,172,9.0,12.0,-999,-99.99,,,-99.99,,2013-06-25 18:53:00,
2013-06-25 12:01:00,70.0,-99.9,29.97,South,172,9.0,17.0,-999,-99.99,,,-99.99,,2013-06-25 19:01:00,
2013-06-25 12:33:00,70.0,-99.9,29.97,South,174,7.0,12.0,-999,-99.99,,,-99.99,,2013-06-25 19:33:00,
2013-06-25 12:54:00,69.0,-99.9,29.98,South,188,7.0,10.0,-999,-99.99,,,-99.99,,2013-06-25 19:54:00,
2013-06-25 13:22:00,69.0,-99.9,29.98,South,184,11.0,15.0,-999,-99.99,,,-99.99,,2013-06-25 20:22:00,
2013-06-25 13:33:00,69.0,-99.9,29.98,South,178,7.0,14.0,-999,-99.99,,,-99.99,,2013-06-25 20:33:00,
2013-06-25 14:22:00,71.0,-99.9,29.98,SSE,162,8.0,14.0,-999,-99.99,,,-99.99,,2013-06-25 21:22:00,
2013-06-25 14:34:00,71.0,-99.9,29.98,SSE,162,8.0,14.0,-999,-99.99,,,-99.99,,2013-06-25 21:34:00,
2013-06-25 14:53:00,71.0,-99.9,29.98,South,179,9.0,15.0,-999,-99.99,,,-99.99,,2013-06-25 21:53:00,
2013-06-25 15:22:00,72.0,-99.9,29.98,SSW,193,8.0,12.0,-999,-99.99,,,-99.99,,2013-06-25 22:22:00,
2013-06-25 15:52:00,72.0,-99.9,29.97,SSW,198,12.0,17.0,-999,-99.99,,,-99.99,,2013-06-25 22:52:00,
2013-06-25 16:52:00,74.0,-99.9,29.96,South,191,5.0,15.0,-999,-99.99,,,-99.99,,2013-06-25 23:52:00,
2013-06-25 17:33:00,-999.0,-99.9,29.95,SSW,203,8.0,15.0,-999,-99.99,,,-99.99,,2013-06-26 00:33:00,
2013-06-25 18:33:00,74.0,-99.9,29.94,South,190,8.0,14.0,-999,-99.99,,,-99.99,,2013-06-26 01:33:00,
2013-06-25 18:44:00,74.0,-99.9,29.94,SW,219,11.0,14.0,-999,-99.99,,,-99.99,,2013-06-26 01:44:00,
2013-06-25 18:53:00,74.0,-99.9,29.94,SSW,211,10.0,13.0,-999,-99.99,,,-99.99,,2013-06-26 01:53:00,
2013-06-25 19:44:00,73.0,-99.9,29.95,South,182,7.0,12.0,-999,-99.99,,,-99.99,,2013-06-26 02:44:00,
2013-06-25 19:53:00,73.0,-99.9,29.95,SSW,192,8.0,13.0,-999,-99.99,,,-99.99,,2013-06-26 02:53:00,
2013-06-25 20:02:00,72.0,-99.9,29.95,SW,227,6.0,9.0,-999,-99.99,,,-99.99,,2013-06-26 03:02:00,
2013-06-25 20:11:00,71.0,-99.9,29.95,WSW,245,9.0,12.0,-999,-99.99,,,-99.99,,2013-06-26 03:11:00,
2013-06-25 20:22:00,71.0,-99.9,29.95,WSW,248,8.0,10.0,-999,-99.99,,,-99.99,,2013-06-26 03:22:00,
2013-06-25 20:43:00,70.0,-99.9,29.95,WSW,252,6.0,7.0,-999,-99.99,,,-99.99,,2013-06-26 03:43:00,
2013-06-25 20:52:00,70.0,-99.9,29.95,WSW,254,6.0,8.0,-999,-99.99,,,-99.99,,2013-06-26 03:52:00,
2013-06-25 21:02:00,70.0,-99.9,29.95,WSW,252,5.0,6.0,-999,-99.99,,,-99.99,,2013-06-26 04:02:00,
2013-06-25 21:12:00,68.0,-99.9,29.95,NW,309,5.0,10.0,-999,-99.99,,,-99.99,,2013-06-26 04:12:00,
2013-06-25 21:22:00,67.0,-99.9,29.95,NW,321,8.0,10.0,-999,-99.99,,,-99.99,,2013-06-26 04:22:00,
2013-06-25 21:43:00,66.0,-99.9,29.95,WNW,290,6.0,8.0,-999,-99.99,,,-99.99,,2013-06-26 04:43:00,
2013-06-25 21:53:00,66.0,-99.9,29.96,West,268,8.0,9.0,-999,-99.99,,,-99.99,,2013-06-26 04:53:00,
2013-06-25 22:02:00,67.0,-99.9,29.96,West,277,9.0,11.0,-999,-99.99,,,-99.99,,2013-06-26 05:02:00,
2013-06-25 22:22:00,66.0,-99.9,29.97,WNW,301,5.0,8.0,-999,-99.99,,,-99.99,,2013-06-26 05:22:00,
2013-06-25 22:43:00,65.0,-99.9,29.97,West,280,9.0,11.0,-999,-99.99,,,-99.99,,2013-06-26 05:43:00,
2013-06-25 22:52:00,65.0,-99.9,29.97,WNW,297,6.0,8.0,-999,-99.99,,,-99.99,,2013-06-26 05:52:00,
2013-06-25 23:22:00,65.0,-99.9,29.97,North,0,3.0,5.0,-999,-99.99,,,-99.99,,2013-06-26 06:22:00,
2013-06-25 23:34:00,65.0,-99.9,29.98,North,354,3.0,4.0,-999,-99.99,,,-99.99,,2013-06-26 06:34:00,
2013-06-25 23:53:00,65.0,-99.9,29.97,NNW,346,4.0,5.0,-999,-99.99,,,-99.99,,2013-06-26 06:53:00,